Location: Driftpile
(55.3500°N, 115.7667°W)
Time: 01:46:53
(UTC+00:00)

N. Korean satellite - Pass Details

Date: 03 December 2021
Orbit: 446 x 492 km, 97.3° (Epoch: 17 January)

Event Time Altitude Azimuth Distance (km) Brightness Sun altitude
Rises 00:12:02 0° 176° (S) 2,535 10.6 -7.3°
Reaches altitude 10° 00:14:08 10° 181° (S) 1,652 9.7 -7.6°
Maximum altitude 00:17:37 53° 259° (W) 589 7.4 -8.0°
Drops below altitude 10° 00:21:05 10° 338° (NNW) 1,638 9.2 -8.5°
Sets 00:23:09 0° 343° (NNW) 2,511 10.1 -8.7°
